[[{"header":{"parameterUnit":"m.s-1","parameterCategory":1,"la1":30.2992,"la2":30.254,"lo1":-89.0895,"lo2":-89.0443,"dy":0.0025,"dx":0.0025,"nx":19,"ny":19,"refTime":"2026-03-29T21:00:00:Z","depth":0,"parameterNumber":2,"parameterNumberName":"U-component_of_WINDS"},"data":[0,0,0,-6.1142,-6.1147,-6.1382,-6.1383,-6.1684,-6.1686,0,0,0,0,0,0,0,0,0,0,0,-6.1073,-6.1075,-6.1142,-6.1148,-6.1382,-6.1383,-6.1683,-6.1686,0,0,0,0,0,0,0,0,0,0,0,-6.1072,-6.1075,-6.1077,-6.1149,-6.1382,-6.1383,-6.1682,-6.1505,0,0,0,0,0,0,0,0,0,0,-6.1278,-6.1214,-6.1074,-6.1077,-6.115,-6.1381,-6.1383,-6.1497,-6.1516,-6.1578,0,-6.1632,0,-6.1664,-6.1706,-6.1708,0,0,0,-6.1148,-6.1198,-6.1261,-6.1078,-6.1152,-6.1381,-6.1276,-6.1508,-6.153,-6.1604,-6.1636,-6.1648,-6.1669,-6.1708,-6.171,-6.2062,-6.2064,0,0,-6.1135,-6.1116,-6.1245,-6.1275,-6.1238,-6.1269,-6.1283,-6.1521,-6.1556,-6.1638,-6.1655,-6.1674,-6.171,-6.1713,-6.2061,-6.2063,0,0,0,-6.1098,-6.1107,-6.1164,-6.1263,-6.1305,-6.1275,-6.1292,-6.1545,-6.1565,-6.1658,-6.1677,-6.1712,-6.1716,-6.2059,-6.2061,-6.2122,0,0,0,-6.109,-6.1085,-6.1158,-6.1149,-6.13,-6.1428,-6.1311,-6.1549,-6.1576,-6.1676,-6.1712,-6.1719,-6.2057,-6.206,-6.2116,-6.2153,0,0,0,-6.1058,-6.1081,-6.1115,-6.1147,-6.1247,-6.1424,-6.1458,-6.1555,-6.1588,-6.1708,-6.172,-6.2056,-6.206,-6.2111,-6.2145,-6.2237,0,0,0,-6.1018,-6.1167,-6.1116,-6.129,-6.1245,-6.1461,-6.1457,-6.1619,-6.1729,-6.1714,-6.2057,-6.2061,-6.211,-6.214,-6.2232,-6.2309,-6.2341,0,0,-6.1195,-6.1188,-6.1292,-6.1253,-6.1472,-6.1426,-6.1656,-6.1775,-6.1805,-6.1975,-6.1984,-6.2118,-6.2144,-6.2236,-6.2529,-6.2554,0,0,0,-6.1341,-6.1415,-6.1478,-6.1581,-6.1676,-6.1759,-6.1846,-6.189,-6.2035,-6.1888,-6.2179,-6.2195,-6.225,-6.2288,-6.2309,-6.2356,-6.2079,-6.2078,-6.2078,-6.1562,-6.1592,-6.1765,-6.1822,-6.1923,-6.2011,-6.2095,-6.2169,-6.2171,-6.224,-6.2289,-6.2463,-6.2506,-6.2522,-6.2571,-6.2335,-6.2336,-6.2336,-6.2336,-6.1821,-6.1929,-6.1928,-6.2094,-6.2125,-6.2266,-6.2357,-6.2354,-6.2489,-6.2428,-6.2478,-6.2405,-6.2548,-6.2592,-6.2341,-6.234,-6.2339,-6.2339,-6.2339,-6.1966,-6.2022,-6.2074,-6.2225,-6.234,-6.2395,-6.2524,-6.2549,-6.2573,-6.2623,-6.2676,-6.2675,-6.2674,-6.2647,-6.2648,-6.2648,-6.2649,-6.2649,-6.265,-6.2093,-6.215,-6.2255,-6.2369,-6.2438,-6.2532,-6.2623,-6.2692,-6.2774,-6.2782,-6.2782,-6.2775,-6.2558,-6.2501,-6.2659,-6.2657,-6.2656,-6.2655,-6.2655,-6.2338,-6.2287,-6.245,-6.2519,-6.2654,-6.2764,-6.2795,-6.2933,-6.2995,-6.3057,-6.3042,-6.2878,-6.2872,-6.2855,-6.2808,-6.3036,-6.3036,-6.3036,-6.3036,-6.2457,-6.2458,-6.2629,-6.2737,-6.2847,-6.2892,-6.3074,-6.3147,-6.3214,-6.3254,-6.3226,-6.3166,-6.3148,-6.3153,-6.313,-6.3085,-6.3379,-6.338,-6.338,-6.2608,-6.262,-6.277,-6.2834,-6.2942,-6.3033,-6.3205,-6.333,-6.3397,-6.3395,-6.3285,-6.327,-6.3175,-6.3143,-6.3133,-6.3097,-6.3016,0,0]},{"header":{"parameterUnit":"m.s-1","parameterCategory":1,"la1":30.2992,"la2":30.254,"lo1":-89.0895,"lo2":-89.0443,"dy":0.0025,"dx":0.0025,"nx":19,"ny":19,"refTime":"2026-03-29T21:00:00:Z","depth":0,"parameterNumber":3,"parameterNumberName":"V-component_of_WINDS"},"data":[0,0,0,3.7293,3.7296,3.7457,3.7458,3.764,3.7642,0,0,0,0,0,0,0,0,0,0,0,3.7234,3.7235,3.7292,3.7296,3.7457,3.7458,3.764,3.7642,0,0,0,0,0,0,0,0,0,0,0,3.7233,3.7234,3.7236,3.7297,3.7457,3.7458,3.764,3.7526,0,0,0,0,0,0,0,0,0,0,3.7373,3.7309,3.7234,3.7236,3.7297,3.7457,3.7458,3.7521,3.7533,3.7558,0,3.7581,0,3.7614,3.7653,3.7653,0,0,0,3.7303,3.7299,3.7352,3.7236,3.7299,3.7457,3.7387,3.7528,3.7541,3.7574,3.7584,3.7591,3.7617,3.7654,3.7655,3.7784,3.7784,0,0,3.7294,3.7256,3.7343,3.7361,3.7338,3.7381,3.7391,3.7536,3.7543,3.7585,3.7596,3.762,3.7655,3.7656,3.7784,3.7784,0,0,0,3.7264,3.725,3.73,3.7353,3.7384,3.7386,3.7397,3.7537,3.7556,3.7598,3.7623,3.7656,3.7658,3.7783,3.7784,3.7761,0,0,0,3.7259,3.7232,3.7296,3.7274,3.7381,3.7463,3.7394,3.7546,3.7564,3.7622,3.7656,3.766,3.7783,3.7784,3.7761,3.7755,0,0,0,3.7227,3.7229,3.7249,3.7272,3.734,3.7462,3.749,3.7551,3.7579,3.7654,3.766,3.7783,3.7784,3.7761,3.7756,3.7778,0,0,0,3.7181,3.7225,3.7247,3.7305,3.7339,3.7447,3.749,3.7572,3.7633,3.7657,3.7783,3.7784,3.7761,3.7756,3.7778,3.7789,3.7791,0,0,3.7215,3.7228,3.7265,3.729,3.7384,3.7425,3.7516,3.7607,3.7647,3.7735,3.7739,3.7761,3.7756,3.7778,3.7814,3.7815,0,0,0,3.7262,3.7288,3.7322,3.738,3.7452,3.7512,3.7594,3.7627,3.7704,3.7686,3.7776,3.7774,3.7789,3.7796,3.7797,3.7811,3.7786,3.7786,3.7786,3.7255,3.7306,3.737,3.744,3.7495,3.7579,3.7627,3.7686,3.772,3.774,3.7766,3.7783,3.779,3.7791,3.7805,3.7777,3.7777,3.7777,3.7777,3.7308,3.7353,3.7398,3.7476,3.7528,3.7593,3.7673,3.7695,3.7761,3.7767,3.7782,3.7784,3.779,3.7805,3.7776,3.7776,3.7776,3.7776,3.7776,3.7309,3.7339,3.738,3.7469,3.753,3.7598,3.7659,3.7704,3.7746,3.7761,3.7793,3.7794,3.7799,3.7774,3.7774,3.7774,3.7774,3.7774,3.7774,3.7293,3.734,3.7388,3.7468,3.751,3.7571,3.7654,3.7695,3.7753,3.778,3.7781,3.7811,3.7782,3.7773,3.7775,3.7775,3.7775,3.7774,3.7774,3.7327,3.7326,3.7401,3.7443,3.7539,3.7595,3.7652,3.7733,3.7774,3.7802,3.7829,3.7801,3.7816,3.7816,3.7809,3.7819,3.7819,3.7819,3.7819,3.7327,3.734,3.7425,3.749,3.7558,3.7616,3.7694,3.7758,3.7822,3.785,3.7855,3.7849,3.7847,3.7864,3.7862,3.7857,3.7879,3.7879,3.7879,3.735,3.7371,3.7431,3.7498,3.7575,3.7639,3.7714,3.7783,3.7856,3.7882,3.7872,3.7869,3.7862,3.7857,3.7882,3.7879,3.7869,0,0]}]]